• In Sweden
  • List of Countries
  • For 7 days
  • Water Temperature
  • Satellite Maps
  • Weather Map
  • Weather Widgets
  • user-avatar
    Login

    Hourly Weather Pernik

    Today, 13 November, Tuesday

    Time Temperature Precipitation Wind Pressure Humidity
    00:00 +7°C° 0 mm 1 mps 699 mmHg 58%
    01:00 +7°C° 0 mm 1 mps 699 mmHg 58%
    02:00 +7°C° 0 mm 1 mps 699 mmHg 63%
    03:00 +6°C° 0 mm 1 mps 699 mmHg 63%
    04:00 +6°C° 0 mm 1 mps 699 mmHg 64%
    05:00 +6°C° 0 mm 1 mps 699 mmHg 65%
    06:00 +6°C° 0 mm 1 mps 699 mmHg 65%
    07:00 +6°C° 0 mm 1 mps 699 mmHg 64%
    08:00 +6°C° 0 mm 1 mps 699 mmHg 63%
    09:00 +9°C° 0 mm 1 mps 700 mmHg 56%
    10:00 +11°C° 0 mm 1 mps 700 mmHg 49%
    11:00 +13°C° 0 mm 1 mps 700 mmHg 42%
    12:00 +14°C° 0 mm 1 mps 700 mmHg 40%
    13:00 +15°C° 0 mm 2 mps 700 mmHg 37%
    14:00 +16°C° 0 mm 2 mps 699 mmHg 35%
    15:00 +14°C° 0 mm 2 mps 699 mmHg 41%
    16:00 +12°C° 0 mm 2 mps 698 mmHg 47%
    17:00 +11°C° 0 mm 1 mps 698 mmHg 53%
    18:00 +10°C° 0 mm 1 mps 698 mmHg 58%
    19:00 +9°C° 0 mm 1 mps 698 mmHg 63%
    20:00 +8°C° 0 mm 1 mps 698 mmHg 69%
    21:00 +7°C° 0 mm 1 mps 698 mmHg 70%
    22:00 +7°C° 0 mm 1 mps 698 mmHg 72%
    23:00 +6°C° 0 mm 1 mps 698 mmHg 74%

    Tomorrow, 14 November, Wednesday

    Time Temperature Precipitation Wind Pressure Humidity
    00:00 +6°C° 0 mm 1 mps 698 mmHg 74%
    01:00 +6°C° 0 mm 1 mps 697 mmHg 74%
    02:00 +6°C° 0 mm 1 mps 697 mmHg 74%
    03:00 +6°C° 0 mm 1 mps 697 mmHg 74%
    04:00 +6°C° 0 mm 1 mps 697 mmHg 74%
    05:00 +6°C° 0 mm 1 mps 696 mmHg 74%
    06:00 +6°C° 0 mm 1 mps 697 mmHg 72%
    07:00 +6°C° 0 mm 1 mps 697 mmHg 71%
    08:00 +6°C° 0 mm 1 mps 697 mmHg 70%
    09:00 +8°C° 0 mm 1 mps 697 mmHg 65%
    10:00 +9°C° 0 mm 2 mps 697 mmHg 59%
    11:00 +12°C° 0 mm 2 mps 697 mmHg 54%
    12:00 +11°C° 0 mm 3 mps 697 mmHg 56%
    13:00 +12°C° 0 mm 3 mps 696 mmHg 58%
    14:00 +12°C° 0 mm 3 mps 696 mmHg 60%
    15:00 +11°C° 0 mm 3 mps 696 mmHg 65%
    16:00 +10°C° 0 mm 3 mps 695 mmHg 69%
    17:00 +9°C° 0 mm 2 mps 695 mmHg 73%
    18:00 +7°C° 0 mm 2 mps 695 mmHg 78%
    19:00 +6°C° 0 mm 2 mps 695 mmHg 83%
    20:00 +5°C° 0 mm 2 mps 695 mmHg 88%
    21:00 +6°C° 0 mm 1 mps 695 mmHg 88%
    22:00 +5°C° 0 mm 1 mps 695 mmHg 88%
    23:00 +5°C° 0 mm 1 mps 695 mmHg 88%

    Day after tomorrow, 15 November, Thursday

    Time Temperature Precipitation Wind Pressure Humidity
    00:00 +5°C° 0 mm 1 mps 695 mmHg 86%
    01:00 +5°C° 0 mm 1 mps 695 mmHg 85%
    02:00 +4°C° 0 mm 2 mps 695 mmHg 83%
    03:00 +4°C° 0 mm 2 mps 694 mmHg 85%
    04:00 +4°C° 0 mm 2 mps 694 mmHg 86%
    05:00 +3°C° 0 mm 2 mps 694 mmHg 87%
    06:00 +3°C° 0 mm 2 mps 694 mmHg 86%
    07:00 +3°C° 0 mm 2 mps 694 mmHg 86%
    08:00 +3°C° 0 mm 2 mps 695 mmHg 85%
    09:00 +3°C° 0.1 mm 3 mps 695 mmHg 79%
    10:00 +4°C° 0.1 mm 3 mps 695 mmHg 72%
    11:00 +5°C° 0.1 mm 3 mps 695 mmHg 65%
    12:00 +7°C° 0.1 mm 3 mps 695 mmHg 62%
    13:00 +7°C° 0.1 mm 3 mps 695 mmHg 58%
    14:00 +7°C° 0.1 mm 3 mps 695 mmHg 55%
    15:00 +7°C° 0 mm 3 mps 695 mmHg 59%
    16:00 +6°C° 0 mm 2 mps 695 mmHg 63%
    17:00 +5°C° 0 mm 2 mps 694 mmHg 67%
    18:00 +4°C° 0 mm 2 mps 695 mmHg 71%
    19:00 +4°C° 0 mm 1 mps 695 mmHg 76%
    20:00 +4°C° 0 mm 1 mps 695 mmHg 81%
    21:00 +3°C° 0 mm 1 mps 696 mmHg 83%
    22:00 +3°C° 0 mm 1 mps 696 mmHg 84%
    23:00 +3°C° 0 mm 1 mps 696 mmHg 86%

    16 November, Friday

    Time Temperature Precipitation Wind Pressure Humidity
    00:00 +3°C° 0 mm 1 mps 696 mmHg 87%
    01:00 +2°C° 0 mm 1 mps 696 mmHg 88%
    02:00 +2°C° 0 mm 1 mps 696 mmHg 89%
    03:00 +2°C° 0 mm 1 mps 696 mmHg 90%
    04:00 +2°C° 0 mm 1 mps 696 mmHg 91%
    05:00 +2°C° 0 mm 1 mps 696 mmHg 92%
    06:00 +2°C° 0 mm 1 mps 697 mmHg 91%
    07:00 +2°C° 0 mm 1 mps 697 mmHg 91%
    08:00 +1°C° 0 mm 2 mps 697 mmHg 90%
    09:00 +2°C° 0 mm 2 mps 698 mmHg 80%
    10:00 +3°C° 0 mm 3 mps 698 mmHg 69%
    11:00 +4°C° 0 mm 3 mps 698 mmHg 59%
    12:00 +5°C° 0 mm 4 mps 698 mmHg 57%
    13:00 +5°C° 0 mm 4 mps 698 mmHg 55%
    14:00 +5°C° 0 mm 4 mps 698 mmHg 53%
    15:00 +4°C° 0 mm 3 mps 697 mmHg 58%
    16:00 +3°C° 0 mm 3 mps 697 mmHg 64%
    17:00 +2°C° 0 mm 3 mps 697 mmHg 70%
    18:00 +2°C° 0 mm 2 mps 697 mmHg 75%
    19:00 +1°C° 0 mm 2 mps 697 mmHg 80%
    20:00 -1°C° 0 mm 2 mps 698 mmHg 85%
    21:00 -1°C° 0 mm 2 mps 698 mmHg 87%
    22:00 -2°C° 0 mm 2 mps 698 mmHg 88%
    23:00 -2°C° 0 mm 2 mps 698 mmHg 89%

    17 November, Saturday

    Time Temperature Precipitation Wind Pressure Humidity
    00:00 -1°C° 0 mm 1 mps 698 mmHg 88%
    01:00 -1°C° 0 mm 1 mps 698 mmHg 87%
    02:00 -1°C° 0 mm 1 mps 698 mmHg 86%
    03:00 -2°C° 0 mm 1 mps 698 mmHg 86%
    04:00 -2°C° 0 mm 1 mps 698 mmHg 85%
    05:00 -2°C° 0 mm 1 mps 698 mmHg 85%
    06:00 -2°C° 0 mm 1 mps 698 mmHg 83%
    07:00 -2°C° 0 mm 1 mps 698 mmHg 82%
    08:00 -2°C° 0 mm 1 mps 698 mmHg 80%
    09:00 -2°C° 0 mm 2 mps 698 mmHg 69%
    10:00 +1°C° 0 mm 2 mps 699 mmHg 59%
    11:00 +2°C° 0 mm 3 mps 699 mmHg 48%
    12:00 +2°C° 0 mm 3 mps 699 mmHg 47%
    13:00 +3°C° 0 mm 3 mps 698 mmHg 45%
    14:00 +3°C° 0 mm 3 mps 698 mmHg 44%
    15:00 +2°C° 0 mm 3 mps 697 mmHg 50%
    16:00 +2°C° 0 mm 2 mps 697 mmHg 55%
    17:00 +1°C° 0 mm 2 mps 697 mmHg 61%
    18:00 -1°C° 0 mm 2 mps 697 mmHg 66%
    19:00 -2°C° 0 mm 2 mps 697 mmHg 72%
    20:00 -3°C° 0 mm 2 mps 697 mmHg 77%
    21:00 -4°C° 0 mm 2 mps 697 mmHg 80%
    22:00 -2°C° 0 mm 1 mps 697 mmHg 82%
    23:00 -2°C° 0 mm 1 mps 697 mmHg 84%

    18 November, Sunday

    Time Temperature Precipitation Wind Pressure Humidity
    00:00 -2°C° 0 mm 1 mps 697 mmHg 86%
    01:00 -3°C° 0 mm 1 mps 697 mmHg 87%
    02:00 -3°C° 0 mm 1 mps 696 mmHg 89%
    03:00 -3°C° 0 mm 1 mps 696 mmHg 89%
    04:00 -3°C° 0 mm 1 mps 696 mmHg 88%
    05:00 -5°C° 0 mm 2 mps 696 mmHg 88%
    06:00 -5°C° 0 mm 2 mps 696 mmHg 87%
    07:00 -4°C° 0 mm 2 mps 695 mmHg 86%
    08:00 -4°C° 0 mm 2 mps 695 mmHg 85%
    09:00 -2°C° 0 mm 2 mps 695 mmHg 77%
    10:00 -1°C° 0 mm 2 mps 695 mmHg 68%
    11:00 +2°C° 0 mm 2 mps 696 mmHg 59%
    12:00 +2°C° 0 mm 3 mps 695 mmHg 57%
    13:00 +3°C° 0 mm 3 mps 694 mmHg 56%
    14:00 +4°C° 0 mm 3 mps 694 mmHg 54%
    15:00 +3°C° 0 mm 3 mps 693 mmHg 60%
    16:00 +2°C° 0 mm 3 mps 692 mmHg 66%
    17:00 +1°C° 0 mm 2 mps 692 mmHg 72%
    18:00 +1°C° 0 mm 2 mps 691 mmHg 76%
    19:00 -1°C° 0 mm 2 mps 691 mmHg 79%
    20:00 -2°C° 0 mm 2 mps 691 mmHg 83%
    21:00 -2°C° 0 mm 2 mps 691 mmHg 83%
    22:00 0°C° 0 mm 1 mps 690 mmHg 83%
    23:00 0°C° 0 mm 1 mps 690 mmHg 83%
    Show more